Location: Centerville
(32.8776°N, 96.6203°W)
Time: 02:18:57
(UTC+00:00)

ERBS - Pass Details

Date: 17 June 2021
Orbit: 397 x 417 km, 57.0° (Epoch: 27 July)

Event Time Altitude Azimuth Distance (km) Brightness Sun altitude
Exits shadow 09:28:21 83° 200° (SSW) 403 2.0 -19.1°
Maximum altitude 09:28:28 88° 130° (SE) 400 2.0 -19.1°
Drops below altitude 10° 09:31:41 10° 39° (NE) 1,444 6.2 -18.6°
Sets 09:33:45 0° 39° (NE) 2,307 7.7 -18.3°
